Lamar, CO

3:23 AM MST on December 16, 2019 (GMT -0700)
Lamar Municipal

Weather History for KLAA - October, 2019

Change the Weather History Date:

Saturday, October 5, 2019

  Actual Average Record
Temperature  
Mean Temperature 56 °F 58 °F  
Max Temperature 73 °F 75 °F 96 °F (2007)
Min Temperature 39 °F 40 °F 23 °F (1932)
Degree Days  
Heating Degree Days 9 8  
Month to date heating degree days 29 36  
Since 1 July heating degree days 35 119  
Cooling Degree Days 0 1  
Month to date cooling degree days 1 5  
Year to date cooling degree days 1406 1117  
Growing Degree Days 8 (Base 50)    
Moisture  
Dew Point 30 °F    
Average Humidity 46    
Maximum Humidity 77    
Minimum Humidity 15    
Precipitation  
Precipitation 0.00 in 0.03 in 0.52 in (1951)
Month to date precipitation 0.01 0.14  
Year to date precipitation 7.76 13.76  
Sea Level Pressure  
Sea Level Pressure 29.96 in    
Wind  
Wind Speed 8 mph (ENE)    
Max Wind Speed 21 mph    
Max Gust Speed 29 mph    
Visibility 10 miles    
Events      
T = Trace of Precipitation, MM = Missing Value Source: NWS Daily Summary

Daily Weather History Graph

Daily Weather History Graph

Search for Another Location

Airport or City:

Astronomy

Oct. 05, 2019 Rise Set
Actual Time 6:49 AM MDT 6:27 PM MDT
Civil Twilight 6:23 AM MDT 6:54 PM MDT
Nautical Twilight 5:53 AM MDT 7:24 PM MDT
Astronomical Twilight 5:22 AM MDT 7:55 PM MDT
Moon 2:12 PM MDT (10/5) 11:58 PM MDT (10/5)
Length of Visible Light 12h 30m
Length of Day
11h 37m
Waxing Crescent, 50% of the Moon is Illuminated
Oct 5
Waxing Crescent
Oct 13
Full
Oct 21
Last Quarter
Oct 27
New
Nov 4
First Quarter

Hourly Weather History & Observations

Time (MDT) Temp. Windchill Dew Point Humidity Pressure Visibility Wind Dir Wind Speed Gust Speed Precip Events Conditions
12:53 AM 55.0 °F - 46.9 °F 74% 29.77 in 10.0 mi West 4.6 mph - N/A   Clear
1:53 AM 53.1 °F - 46.0 °F 77% 29.79 in 10.0 mi West 8.1 mph - N/A   Clear
2:53 AM 61.0 °F - 46.9 °F 60% 29.83 in 10.0 mi North 17.3 mph 28.8 mph N/A   Clear
3:53 AM 54.0 °F - 43.0 °F 66% 29.87 in 10.0 mi NE 8.1 mph - N/A   Clear
4:53 AM 48.9 °F - 39.9 °F 71% 29.91 in 10.0 mi East 6.9 mph - N/A   Clear
5:53 AM 46.9 °F - 39.0 °F 74% 29.96 in 10.0 mi East 6.9 mph - N/A   Clear
6:53 AM 48.0 °F - 36.0 °F 63% 30.02 in 10.0 mi ESE 6.9 mph - N/A   Clear
7:53 AM 54.0 °F - 32.0 °F 43% 30.02 in 10.0 mi East 5.8 mph - N/A   Clear
8:53 AM 57.9 °F - 25.0 °F 28% 30.04 in 10.0 mi East 5.8 mph - N/A   Clear
9:53 AM 60.1 °F - 23.0 °F 24% 30.06 in 10.0 mi Variable 6.9 mph - N/A   Clear
10:53 AM 66.0 °F - 17.1 °F 15% 30.05 in 10.0 mi North 8.1 mph - N/A   Clear
11:53 AM 68.0 °F - 19.0 °F 15% 30.04 in 10.0 mi North 5.8 mph - N/A   Clear
12:53 PM 70.0 °F - 21.0 °F 16% 30.02 in 10.0 mi NE 13.8 mph 17.3 mph N/A   Clear
1:53 PM 71.1 °F - 21.9 °F 16% 29.99 in 10.0 mi NE 8.1 mph - N/A   Clear
2:53 PM 73.0 °F - 23.0 °F 15% 29.95 in 10.0 mi ENE 8.1 mph - N/A   Clear
3:53 PM 73.0 °F - 24.1 °F 16% 29.94 in 10.0 mi East 10.4 mph 25.3 mph N/A   Clear
4:53 PM 71.1 °F - 25.0 °F 18% 29.94 in 10.0 mi ESE 10.4 mph - N/A   Clear
5:53 PM 68.0 °F - 25.0 °F 20% 29.95 in 10.0 mi ESE 11.5 mph - N/A   Clear
6:53 PM 60.1 °F - 26.1 °F 27% 29.98 in 10.0 mi East 9.2 mph - N/A   Clear
7:53 PM 55.9 °F - 27.0 °F 33% 29.99 in 10.0 mi ESE 8.1 mph - N/A   Clear
8:53 PM 54.0 °F - 27.0 °F 35% 29.99 in 10.0 mi ESE 9.2 mph - N/A   Clear
9:53 PM 48.9 °F - 27.0 °F 43% 29.99 in 10.0 mi ESE 8.1 mph - N/A   Clear
10:53 PM 44.1 °F 40.8 °F 30.9 °F 60% 30.01 in 10.0 mi ENE 5.8 mph - N/A   Clear
11:53 PM 41.0 °F 37.1 °F 30.9 °F 67% 30.01 in 10.0 mi ENE 5.8 mph - N/A   Clear